ELECTRON KICK STAGE R/B

Last updated on Sun Jun 21 2026 00:02:05 GMT+0000 (Coordinated Universal Time)

1 69178U 26112B 26171.41836492 .00003634 00000+0 28746-3 0 9992 2 69178 44.9055 175.3007 0024316 67.9151 292.4299 15.02207020 4367
UTC large
Height (km)
Speed (km/s)
/
Latitude / Longitude
Inclination (degrees)
Orbital Period (minutes)
Azimuth
Elevation
Range (km)
Doppler Factor

Next 0 passes for location: London (51.5072 / 0.1276)

No passes found over London.
ELECTRON KICK STAGE R/B